Tracking 30303 objects as of 20-Apr-2025
HD Live streaming from Space Station
objects crossing your sky now

IRIDIUM 33 DEB

Track IRIDIUM 33 DEB now!
10-day predictions


NORAD ID: 36011
Int'l Code: 1997-051US
Perigee: 752.5 km
Apogee: 776.2 km
Inclination: 86.3 °
Period: 100.0 minutes
Semi major axis: 7135 km
RCS: 0.0036 m2 (small)
Launch date: September 14, 1997
Source: United States (US)
Launch site: TYURATAM MISSILE AND SPACE COMPLEX (TTMTR)

Note: This is SATELLITE DEBRIS
Your satellite tracking list
Your tracking list is empty




NASA's NSSDC Master Catalog

Two Line Element Set (TLE):
1 36011U 97051US  25103.37469216  .00002864  00000-0  89519-3 0  9997
2 36011  86.3405 139.8754 0016611 308.7637 108.2436 14.40401447610364
Source of the keplerian elements: AFSPC